Weather reports worldwide

Advertisment
Jerez De La Frontera aeropuert, Spain (8451): temperature & dewpoint: 05.12.2019 09:00:00 - 11.12.2019 09:00:00 (CET)Jerez De La Frontera aeropuert, Spain (8451): wind speed: 05.12.2019 09:00:00 - 11.12.2019 09:00:00 (CET)Jerez De La Frontera aeropuert, Spain (8451): wind direction: 05.12.2019 09:00:00 - 11.12.2019 09:00:00 (CET)Jerez De La Frontera aeropuert, Spain (8451): reduced air pressure: 05.12.2019 09:00:00 - 11.12.2019 09:00:00 (CET)Jerez De La Frontera aeropuert, Spain (8451): visibility: 05.12.2019 09:00:00 - 11.12.2019 09:00:00 (CET)
Date & Time tt [°C] td [°C] ff [km/h] ff [kn] dd ppp [hPa] vv [km]
11.12.2019 09:00:00 6,9 6,8 0 0 N 1026,9 0,2
11.12.2019 08:00:00 6,6 6,5 0 0 N 1026,3 0,2
11.12.2019 07:00:00 4,5 4,2 0 0 N 1026,0 0,5
11.12.2019 06:00:00 4,6 4,3 2 1 E 1025,7 1,5
11.12.2019 05:00:00 4,7 4,3 2 1 - 1025,7 4,7
11.12.2019 04:00:00 5,6 5,2 4 2 E 1025,8 5
11.12.2019 03:00:00 5,5 4,9 8 4 ENE 1026,0 6
11.12.2019 02:00:00 5,4 4,7 5 3 ENE 1026,3 8
11.12.2019 01:00:00 5,9 5,0 5 3 E 1026,7 7
11.12.2019 00:00:00 6,5 5,6 2 1 - 1026,7 7
10.12.2019 23:00:00 6,4 5,0 4 2 E 1026,7 10
10.12.2019 22:00:00 7,6 6,1 0 0 N 1026,7 10
10.12.2019 21:00:00 9,2 6,8 4 2 - 1026,9 10
10.12.2019 20:00:00 10,5 7,6 2 1 NW 1026,8 10
10.12.2019 19:00:00 11,6 7,9 5 3 NNW 1026,4 10
10.12.2019 18:00:00 14,9 8,8 8 4 NW 1026,1 10
10.12.2019 17:00:00 17,2 8,9 8 4 N 1026,0 10
10.12.2019 16:00:00 17,7 9,1 5 3 N 1026,1 10
10.12.2019 15:00:00 17,1 10,2 2 1 - 1026,6 10
10.12.2019 14:00:00 15,8 9,9 4 2 - 1027,5 10
10.12.2019 13:00:00 14,7 9,8 4 2 - 1028,3 10
10.12.2019 12:00:00 13,2 9,7 2 1 - 1028,8 10
10.12.2019 11:00:00 10,8 8,6 4 2 - 1028,9 6
10.12.2019 10:00:00 9,2 7,8 2 1 - 1028,3 5
10.12.2019 09:00:00 6,9 6,3 8 4 NNE 1027,9 4,5
10.12.2019 08:00:00 6,7 6,0 5 3 NNW 1027,6 10
10.12.2019 07:00:00 7,2 6,3 8 4 NW 1027,5 10
10.12.2019 06:00:00 7,9 7,0 18 10 NNW 1027,6 10
10.12.2019 05:00:00 9,4 8,2 18 10 N 1027,7 8
10.12.2019 04:00:00 8,8 8,0 16 9 N 1028,3 8
10.12.2019 03:00:00 8,8 8,0 13 7 NNW 1028,4 6
10.12.2019 02:00:00 8,5 8,1 11 6 NW 1028,6 6
10.12.2019 01:00:00 9,5 8,9 15 8 NW 1029,1 6
10.12.2019 00:00:00 9,4 8,4 9 5 NW 1029,2 9
09.12.2019 23:00:00 10,2 9,0 9 5 NW 1029,1 10
09.12.2019 22:00:00 10,0 8,7 13 7 NNW 1029,4 10
09.12.2019 21:00:00 11,0 9,1 11 6 NNW 1029,2 10
09.12.2019 20:00:00 10,5 8,6 8 4 NNE 1028,8 10
09.12.2019 19:00:00 11,9 9,8 13 7 NNE 1029,0 10
09.12.2019 18:00:00 15,7 11,3 13 7 N 1028,5 10
09.12.2019 17:00:00 17,9 13,0 15 8 NNE 1028,4 10
09.12.2019 16:00:00 18,3 13,0 16 9 N 1028,4 10
09.12.2019 15:00:00 18,4 13,3 15 8 N 1028,6 10
09.12.2019 14:00:00 18,0 13,4 9 5 N 1029,3 10
09.12.2019 13:00:00 18,1 13,8 2 1 - 1030,0 9
09.12.2019 12:00:00 16,2 13,7 4 2 - 1030,8 7
09.12.2019 11:00:00 13,7 12,4 2 1 - 1030,8 2,5
09.12.2019 10:00:00 12,0 11,1 0 0 N 1030,5 3,0
09.12.2019 09:00:00 10,7 9,8 0 0 N 1029,8 3,5
09.12.2019 08:00:00 10,0 9,2 0 0 N 1029,2 4,0
09.12.2019 07:00:00 9,3 8,5 4 2 - 1028,6 5
09.12.2019 06:00:00 9,1 8,8 0 0 N 1028,4 6
09.12.2019 05:00:00 8,4 8,0 2 1 - 1028,4 2,9
09.12.2019 04:00:00 7,9 7,5 0 0 N 1028,3 3,5
09.12.2019 03:00:00 7,7 7,1 0 0 N 1028,2 3,6
09.12.2019 02:00:00 8,2 7,7 0 0 N 1028,3 3,7
09.12.2019 01:00:00 8,5 7,7 4 2 NE 1028,9 5
09.12.2019 00:00:00 9,1 8,0 4 2 E 1028,6 6
08.12.2019 23:00:00 9,5 8,4 0 0 N 1028,6 5
08.12.2019 22:00:00 10,3 9,4 4 2 S 1028,3 5
08.12.2019 21:00:00 11,5 9,4 0 0 N 1028,1 10
08.12.2019 20:00:00 12,9 9,9 4 2 - 1027,9 10
08.12.2019 19:00:00 13,4 10,2 11 6 W 1027,3 10
08.12.2019 18:00:00 16,3 10,2 9 5 WNW 1026,7 10
08.12.2019 17:00:00 18,2 9,9 5 3 W 1026,3 10
08.12.2019 16:00:00 18,8 10,4 2 1 - 1025,9 10
08.12.2019 15:00:00 18,7 10,3 5 3 - 1026,2 10
08.12.2019 14:00:00 17,9 10,9 5 3 SSW 1026,3 10
08.12.2019 13:00:00 16,9 10,9 2 1 - 1027,4 10
08.12.2019 12:00:00 14,8 10,3 2 1 NNE 1027,8 10
08.12.2019 11:00:00 12,2 9,4 0 0 N 1027,9 10
08.12.2019 10:00:00 8,3 7,2 2 1 - 1027,5 10
08.12.2019 09:00:00 4,7 4,4 0 0 N 1026,9 10
08.12.2019 08:00:00 4,1 3,7 5 3 ENE 1026,4 10
08.12.2019 07:00:00 4,9 4,5 0 0 N 1025,9 10
08.12.2019 06:00:00 5,6 5,2 4 2 ENE 1025,5 10
08.12.2019 05:00:00 4,6 3,9 4 2 ENE 1025,5 9
08.12.2019 04:00:00 5,4 4,7 2 1 - 1025,8 10
08.12.2019 03:00:00 5,9 5,0 2 1 ENE 1025,8 10
08.12.2019 02:00:00 6,1 5,1 4 2 ENE 1025,9 10
08.12.2019 01:00:00 6,3 5,4 4 2 ENE 1026,0 9
08.12.2019 00:00:00 6,9 5,8 4 2 NE 1026,2 9
07.12.2019 23:00:00 7,8 6,3 4 2 ENE 1025,8 10
07.12.2019 22:00:00 8,9 7,0 2 1 - 1025,6 10
07.12.2019 21:00:00 10,8 7,8 0 0 N 1025,0 10
07.12.2019 20:00:00 11,7 7,6 2 1 - 1024,4 10
07.12.2019 19:00:00 12,4 8,1 8 4 NNW 1024,0 10
07.12.2019 18:00:00 15,9 8,9 9 5 N 1023,5 10
07.12.2019 17:00:00 19,0 9,4 8 4 NNW 1022,8 10
07.12.2019 16:00:00 19,5 9,9 8 4 NW 1022,3 10
07.12.2019 15:00:00 19,5 9,5 8 4 NW 1022,2 10
07.12.2019 14:00:00 19,2 9,2 5 3 NW 1022,6 10
07.12.2019 13:00:00 17,2 10,7 5 3 N 1023,6 10
07.12.2019 12:00:00 14,6 10,3 2 1 - 1024,2 7
07.12.2019 11:00:00 11,2 8,8 4 2 - 1024,2 6
07.12.2019 10:00:00 8,3 7,2 0 0 N 1023,6 6
07.12.2019 09:00:00 5,2 4,8 5 3 NNW 1023,0 10
07.12.2019 08:00:00 4,2 3,6 2 1 - 1022,4 10
07.12.2019 07:00:00 5,4 4,7 4 2 NNW 1022,0 10
07.12.2019 06:00:00 5,7 5,0 4 2 N 1021,6 10
07.12.2019 05:00:00 5,8 5,1 2 1 - 1021,8 10
07.12.2019 04:00:00 6,0 5,1 2 1 - 1021,6 10
07.12.2019 03:00:00 6,1 5,4 5 3 NE 1021,5 10
07.12.2019 02:00:00 6,6 5,4 0 0 N 1021,7 10
07.12.2019 01:00:00 7,9 6,4 5 3 NNW 1021,5 10
07.12.2019 00:00:00 8,0 6,5 8 4 NNW 1021,3 10
06.12.2019 23:00:00 8,1 6,1 5 3 ENE 1020,8 10
06.12.2019 22:00:00 9,4 7,5 2 1 - 1020,6 10
06.12.2019 21:00:00 10,4 8,0 2 1 E 1020,1 10
06.12.2019 20:00:00 13,0 8,9 4 2 - 1019,8 10
06.12.2019 19:00:00 14,0 8,4 2 1 - 1019,2 10
06.12.2019 18:00:00 16,6 9,0 8 4 N 1018,6 10
06.12.2019 17:00:00 18,9 9,7 13 7 N 1018,1 10
06.12.2019 16:00:00 18,8 8,8 13 7 N 1017,8 10
06.12.2019 15:00:00 20,0 9,9 9 5 N 1017,8 10
06.12.2019 14:00:00 19,2 9,2 8 4 - 1018,1 10
06.12.2019 13:00:00 18,6 10,4 5 3 NNW 1018,8 10
06.12.2019 12:00:00 15,7 9,7 4 2 - 1019,6 10
06.12.2019 11:00:00 12,5 8,9 8 4 N 1019,9 10
06.12.2019 10:00:00 11,0 8,5 5 3 NNE 1019,3 10
06.12.2019 09:00:00 8,3 6,9 8 4 N 1018,6 10
06.12.2019 08:00:00 7,5 6,6 2 1 - 1017,8 10
06.12.2019 07:00:00 7,8 7,0 13 7 N 1017,1 10
06.12.2019 06:00:00 7,1 6,4 8 4 N 1016,8 10
06.12.2019 05:00:00 7,6 6,4 4 2 - 1016,7 10
06.12.2019 04:00:00 8,4 7,0 5 3 NNE 1016,8 10
06.12.2019 03:00:00 8,6 6,7 4 2 - 1016,4 10
06.12.2019 02:00:00 8,6 6,4 8 4 ENE 1016,2 10
06.12.2019 01:00:00 9,8 7,6 13 7 N 1016,6 10
06.12.2019 00:00:00 9,6 7,5 13 7 N 1016,6 10
05.12.2019 23:00:00 9,8 7,9 8 4 N 1016,3 10
05.12.2019 22:00:00 10,2 8,3 5 3 NE 1015,9 10
05.12.2019 21:00:00 12,4 9,2 4 2 SE 1015,3 10
05.12.2019 20:00:00 13,4 8,2 5 3 NE 1015,1 10
05.12.2019 19:00:00 14,0 8,8 8 4 NNE 1014,4 10
05.12.2019 18:00:00 15,2 9,1 11 6 N 1014,0 10
05.12.2019 17:00:00 16,7 8,6 9 5 NNE 1013,2 10
05.12.2019 16:00:00 17,7 7,9 8 4 ENE 1012,8 10
05.12.2019 15:00:00 17,9 8,1 13 7 NE 1012,9 10
05.12.2019 14:00:00 17,1 7,2 11 6 NE 1013,2 10
05.12.2019 13:00:00 16,0 8,4 18 10 N 1013,7 10
05.12.2019 12:00:00 14,2 7,8 18 10 N 1014,4 10
05.12.2019 11:00:00 11,4 6,5 9 5 N 1014,5 10
05.12.2019 10:00:00 8,7 5,5 5 3 N 1013,9 10
05.12.2019 09:00:00 4,5 3,7 8 4 N 1013,4 10

tt = temperature
td = dewpoint
ff = wind speed
dd = wind direction
ppp = reduced air pressure
vv = visibility

Next stations